Location: Cave
(41.8160°N, 12.9350°E)
Time: 19:26:38
(UTC+02:00)

ISS - Pass Details

Date: 01 March 2019
Orbit: 411 x 421 km, 51.6° (Epoch: 20 October)

Event Time Altitude Azimuth Distance (km) Brightness Sun altitude
Exits shadow 06:12:23 - 296° (WNW) 1,702 -1.3 -6.7°
Reaches altitude 10° 06:13:06 10° 304° (NW) 1,489 -1.5 -6.5°
Maximum altitude 06:15:27 18° 349° (N) 1,120 -1.7 -6.1°
Drops below altitude 10° 06:17:48 10° 34° (NNE) 1,498 -0.5 -5.7°
Sets 06:20:24 0° 54° (NE) 2,369 0.9 -5.2°
